Location: Central Coast NSW, Australia
(33.2407°S, 151.4316°E)
Time: 20:04:40
(UTC+11:00)

ELECTRON R/B - Visible Passes

Search period start: 18 February 2018 00:00
Search period end: 28 February 2018 00:00
Orbit: 289 x 517 km, 82.9° (Epoch: 17 February)

Date Brightness Start Highest point End Pass type
(mag) Time Alt. Az. Time Alt. Az. Time Alt. Az.
18 Feb 7.5 21:23:07 10° SSE 21:24:36 18° SE 21:24:36 18° SE visible
18 Feb 8.7 22:56:50 10° SW 22:57:18 12° SW 22:57:18 12° SW visible
19 Feb 7.3 22:05:54 10° SSW 22:07:56 29° SSW 22:07:56 29° SSW visible
20 Feb 6.9 21:16:18 10° SSE 21:18:32 25° SE 21:18:32 25° SE visible
20 Feb 8.8 22:50:59 10° WSW 22:51:14 11° WSW 22:51:14 11° WSW visible
21 Feb 7.1 21:59:17 10° SSW 22:01:47 33° SW 22:01:47 33° SW visible
22 Feb 6.2 21:09:17 10° S 21:12:18 36° SE 21:12:18 36° SE visible
23 Feb 7.5 20:21:27 10° ESE 20:22:23 11° ESE 20:22:46 11° E visible
23 Feb 7.0 21:52:27 10° SSW 21:55:28 33° WSW 21:55:28 33° WSW visible
24 Feb 5.4 21:02:03 10° S 21:05:45 52° E 21:05:54 51° E visible
25 Feb 7.2 20:13:16 10° SE 20:15:10 13° ESE 20:16:19 12° E visible
25 Feb 7.3 21:45:25 10° SSW 21:48:31 25° W 21:49:00 24° WNW visible
26 Feb 5.1 20:54:36 10° S 20:58:19 70° E 20:59:23 41° NNE visible
27 Feb 7.0 20:05:14 10° SE 20:07:39 17° ESE 20:09:45 11° ENE visible
27 Feb 7.8 21:38:12 10° SW 21:40:50 19° W 21:42:27 14° WNW visible
